Time,TemperatureF,DewpointF,PressureIn,WindDirection,WindDirectionDegrees,WindSpeedMPH,WindSpeedGustMPH,Humidity,HourlyPrecipIn,Conditions,Clouds,dailyrainin,SoftwareType,DateUTC
2013-05-17 00:02:00,52.0,51.0,29.99,North,0,0.0,2.0,98,0.00,,,0.00,,2013-05-17 07:02:00,
2013-05-17 00:11:00,52.0,51.0,29.99,North,0,0.0,2.0,98,0.00,,,0.00,,2013-05-17 07:11:00,
2013-05-17 00:21:00,52.0,51.0,30.00,North,0,0.0,1.0,98,0.00,,,0.00,,2013-05-17 07:21:00,
2013-05-17 00:32:00,51.0,51.0,30.00,NE,45,0.0,2.0,99,0.00,,,0.00,,2013-05-17 07:32:00,
2013-05-17 00:43:00,51.0,51.0,30.00,NE,45,0.0,2.0,99,0.00,,,0.00,,2013-05-17 07:43:00,
2013-05-17 00:53:00,51.0,51.0,30.00,North,0,0.0,2.0,99,0.00,,,0.00,,2013-05-17 07:53:00,
2013-05-17 01:02:00,51.0,51.0,29.99,North,0,0.0,2.0,99,0.00,,,0.00,,2013-05-17 08:02:00,
2013-05-17 01:12:00,51.0,51.0,29.99,North,0,0.0,2.0,99,0.00,,,0.00,,2013-05-17 08:12:00,
2013-05-17 01:22:00,51.0,51.0,30.00,North,0,0.0,0.0,99,0.00,,,0.00,,2013-05-17 08:22:00,
2013-05-17 01:33:00,51.0,51.0,30.00,North,0,0.0,0.0,99,0.00,,,0.00,,2013-05-17 08:33:00,
2013-05-17 01:42:00,51.0,51.0,30.00,North,0,0.0,0.0,99,0.00,,,0.00,,2013-05-17 08:42:00,
2013-05-17 01:52:00,51.0,51.0,30.00,North,0,0.0,0.0,99,0.00,,,0.00,,2013-05-17 08:52:00,
2013-05-17 02:02:00,51.0,51.0,29.99,North,0,0.0,2.0,99,0.00,,,0.00,,2013-05-17 09:02:00,
2013-05-17 02:12:00,51.0,51.0,29.99,North,0,0.0,2.0,99,0.00,,,0.00,,2013-05-17 09:12:00,
2013-05-17 02:22:00,51.0,51.0,29.99,North,0,0.0,2.0,99,0.00,,,0.00,,2013-05-17 09:22:00,
2013-05-17 02:33:00,51.0,51.0,29.99,North,0,0.0,2.0,99,0.00,,,0.00,,2013-05-17 09:33:00,
2013-05-17 02:42:00,51.0,51.0,29.99,North,0,0.0,2.0,99,0.00,,,0.00,,2013-05-17 09:42:00,
2013-05-17 02:53:00,49.0,49.0,29.98,NE,45,0.0,2.0,99,0.00,,,0.00,,2013-05-17 09:53:00,
2013-05-17 03:00:00,50.0,50.0,29.98,North,0,0.0,0.0,99,0.00,,,0.00,,2013-05-17 10:00:00,
2013-05-17 03:03:00,49.0,49.0,29.98,North,0,0.0,2.0,99,0.00,,,0.00,,2013-05-17 10:03:00,
2013-05-17 03:12:00,49.0,49.0,29.98,North,0,0.0,2.0,99,0.00,,,0.00,,2013-05-17 10:12:00,
2013-05-17 03:23:00,50.0,50.0,29.98,North,0,0.0,0.0,99,0.00,,,0.00,,2013-05-17 10:23:00,
2013-05-17 03:32:00,50.0,50.0,29.98,North,0,0.0,0.0,99,0.00,,,0.00,,2013-05-17 10:32:00,
2013-05-17 03:42:00,50.0,50.0,29.98,North,0,0.0,0.0,99,0.00,,,0.00,,2013-05-17 10:42:00,
2013-05-17 03:54:00,50.0,50.0,29.98,North,0,0.0,0.0,99,0.00,,,0.00,,2013-05-17 10:54:00,
2013-05-17 04:34:00,50.0,50.0,29.98,North,0,0.0,0.0,99,0.00,,,0.00,,2013-05-17 11:34:00,
2013-05-17 04:42:00,50.0,50.0,29.98,North,0,0.0,0.0,99,0.00,,,0.00,,2013-05-17 11:42:00,
2013-05-17 04:53:00,50.0,50.0,29.98,North,0,0.0,0.0,99,0.00,,,0.00,,2013-05-17 11:53:00,
2013-05-17 05:02:00,50.0,50.0,29.98,North,0,0.0,0.0,99,0.00,,,0.00,,2013-05-17 12:02:00,
2013-05-17 05:12:00,50.0,50.0,29.98,North,0,0.0,0.0,99,0.00,,,0.00,,2013-05-17 12:12:00,
2013-05-17 05:23:00,50.0,50.0,29.98,North,0,0.0,0.0,99,0.00,,,0.00,,2013-05-17 12:23:00,
2013-05-17 05:33:00,50.0,50.0,29.98,North,0,0.0,0.0,99,0.00,,,0.00,,2013-05-17 12:33:00,
2013-05-17 05:43:00,50.0,50.0,29.98,North,0,0.0,0.0,99,0.00,,,0.00,,2013-05-17 12:43:00,
2013-05-17 05:53:00,49.0,49.0,29.99,North,0,0.0,0.0,99,0.00,,,0.00,,2013-05-17 12:53:00,
2013-05-17 06:03:00,49.0,49.0,29.99,North,0,0.0,0.0,99,0.00,,,0.00,,2013-05-17 13:03:00,
2013-05-17 06:12:00,49.0,49.0,29.99,North,0,0.0,0.0,99,0.00,,,0.00,,2013-05-17 13:12:00,
2013-05-17 06:23:00,49.0,49.0,29.99,North,0,0.0,0.0,99,0.00,,,0.00,,2013-05-17 13:23:00,
2013-05-17 06:33:00,49.0,49.0,29.99,North,0,0.0,0.0,99,0.00,,,0.00,,2013-05-17 13:33:00,
2013-05-17 06:42:00,49.0,49.0,29.99,North,0,0.0,0.0,99,0.00,,,0.00,,2013-05-17 13:42:00,
2013-05-17 06:52:00,50.0,50.0,30.00,North,0,0.0,0.0,99,0.00,,,0.00,,2013-05-17 13:52:00,
2013-05-17 07:01:00,51.0,51.0,30.00,North,0,0.0,0.0,99,0.00,,,0.00,,2013-05-17 14:01:00,
2013-05-17 07:12:00,51.0,51.0,30.00,North,0,0.0,0.0,99,0.00,,,0.00,,2013-05-17 14:12:00,
2013-05-17 07:22:00,51.0,51.0,30.00,North,0,0.0,0.0,99,0.00,,,0.00,,2013-05-17 14:22:00,
2013-05-17 07:34:00,51.0,51.0,30.00,North,0,0.0,0.0,99,0.00,,,0.00,,2013-05-17 14:34:00,
2013-05-17 07:42:00,51.0,51.0,30.00,North,0,0.0,0.0,99,0.00,,,0.00,,2013-05-17 14:42:00,
2013-05-17 08:00:00,54.0,54.0,30.02,North,0,0.0,2.0,99,0.00,,,0.00,,2013-05-17 15:00:00,
2013-05-17 08:03:00,53.0,53.0,30.01,NE,53,0.0,2.0,99,0.00,,,0.00,,2013-05-17 15:03:00,
2013-05-17 08:14:00,53.0,53.0,30.01,NE,53,0.0,2.0,99,0.00,,,0.00,,2013-05-17 15:14:00,
2013-05-17 08:25:00,54.0,54.0,30.02,North,0,0.0,2.0,99,0.00,,,0.00,,2013-05-17 15:25:00,
2013-05-17 08:37:00,54.0,54.0,30.02,North,0,0.0,2.0,99,0.00,,,0.00,,2013-05-17 15:37:00,
2013-05-17 08:47:00,54.0,54.0,30.02,North,0,0.0,2.0,99,0.00,,,0.00,,2013-05-17 15:47:00,
2013-05-17 08:57:00,54.0,54.0,30.02,North,0,0.0,2.0,99,0.00,,,0.00,,2013-05-17 15:57:00,
2013-05-17 09:26:00,58.0,58.0,30.02,NE,55,0.0,3.0,99,0.00,,,0.00,,2013-05-17 16:26:00,
2013-05-17 09:37:00,58.0,58.0,30.02,NE,55,0.0,3.0,99,0.00,,,0.00,,2013-05-17 16:37:00,
2013-05-17 09:49:00,58.0,58.0,30.02,NE,55,0.0,3.0,99,0.00,,,0.00,,2013-05-17 16:49:00,
2013-05-17 09:56:00,58.0,58.0,30.02,NE,55,0.0,3.0,99,0.00,,,0.00,,2013-05-17 16:56:00,
2013-05-17 10:07:00,60.0,54.0,30.02,NE,38,0.0,4.0,82,0.00,,,0.00,,2013-05-17 17:07:00,
2013-05-17 10:15:00,62.0,54.0,30.02,WNW,288,2.0,5.0,75,0.00,,,0.00,,2013-05-17 17:15:00,
2013-05-17 10:18:00,60.0,54.0,30.02,NE,38,0.0,4.0,82,0.00,,,0.00,,2013-05-17 17:18:00,
2013-05-17 10:29:00,61.0,55.0,30.01,NW,325,1.0,6.0,80,0.00,,,0.00,,2013-05-17 17:29:00,
2013-05-17 10:40:00,62.0,-99.9,30.02,WNW,288,2.0,5.0,75,0.00,,,0.00,,2013-05-17 17:40:00,
2013-05-17 10:48:00,62.0,54.0,30.02,WNW,288,2.0,5.0,75,0.00,,,0.00,,2013-05-17 17:48:00,
2013-05-17 11:00:00,62.0,54.0,30.02,WNW,288,2.0,5.0,75,0.00,,,0.00,,2013-05-17 18:00:00,
2013-05-17 11:08:00,62.0,54.0,30.02,WNW,288,2.0,5.0,75,0.00,,,0.00,,2013-05-17 18:08:00,
2013-05-17 11:30:00,63.0,52.0,30.02,NNW,340,2.0,8.0,68,0.00,,,0.00,,2013-05-17 18:30:00,
2013-05-17 11:40:00,63.0,-99.9,30.02,NNW,340,2.0,8.0,68,0.00,,,0.00,,2013-05-17 18:40:00,
2013-05-17 11:50:00,-999.0,-99.9,30.02,NNW,340,2.0,8.0,68,0.00,,,0.00,,2013-05-17 18:50:00,
2013-05-17 12:00:00,63.0,53.0,30.03,NNW,344,3.0,8.0,70,0.00,,,0.00,,2013-05-17 19:00:00,
2013-05-17 12:10:00,64.0,52.0,30.03,NW,316,3.0,7.0,66,0.00,,,0.00,,2013-05-17 19:10:00,
2013-05-17 12:20:00,64.0,52.0,30.03,NW,316,3.0,7.0,66,0.00,,,0.00,,2013-05-17 19:20:00,
2013-05-17 12:30:00,65.0,53.0,30.03,NNW,346,1.0,6.0,65,0.00,,,0.00,,2013-05-17 19:30:00,
2013-05-17 12:40:00,65.0,52.0,30.02,NW,321,3.0,9.0,63,0.00,,,0.00,,2013-05-17 19:40:00,
2013-05-17 12:50:00,65.0,52.0,30.02,NW,321,3.0,9.0,63,0.00,,,0.00,,2013-05-17 19:50:00,
2013-05-17 13:00:00,65.0,-99.9,30.02,NNW,335,3.0,9.0,62,0.00,,,0.00,,2013-05-17 20:00:00,
2013-05-17 13:09:00,65.0,52.0,30.02,NNW,335,3.0,9.0,62,0.00,,,0.00,,2013-05-17 20:09:00,
2013-05-17 13:20:00,65.0,52.0,30.02,NNW,335,3.0,9.0,62,0.00,,,0.00,,2013-05-17 20:20:00,
2013-05-17 13:30:00,65.0,52.0,30.02,NW,311,3.0,11.0,63,0.00,,,0.00,,2013-05-17 20:30:00,
2013-05-17 13:40:00,65.0,51.0,30.02,West,263,4.0,11.0,61,0.00,,,0.00,,2013-05-17 20:40:00,
2013-05-17 13:45:00,65.0,53.0,30.02,West,259,4.0,11.0,65,0.00,,,0.00,,2013-05-17 20:45:00,
2013-05-17 13:50:00,65.0,51.0,30.02,West,263,4.0,11.0,61,0.00,,,0.00,,2013-05-17 20:50:00,
2013-05-17 13:58:00,65.0,53.0,30.02,West,268,5.0,11.0,66,0.00,,,0.00,,2013-05-17 20:58:00,
2013-05-17 14:07:00,65.0,53.0,30.02,West,259,4.0,11.0,65,0.00,,,0.00,,2013-05-17 21:07:00,
2013-05-17 14:16:00,65.0,53.0,30.02,West,259,4.0,11.0,65,0.00,,,0.00,,2013-05-17 21:16:00,
2013-05-17 14:25:00,65.0,53.0,30.02,West,259,4.0,11.0,65,0.00,,,0.00,,2013-05-17 21:25:00,
2013-05-17 14:39:00,65.0,53.0,30.02,West,259,4.0,11.0,65,0.00,,,0.00,,2013-05-17 21:39:00,
2013-05-17 14:45:00,65.0,54.0,30.02,West,274,4.0,11.0,67,0.00,,,0.00,,2013-05-17 21:45:00,
2013-05-17 14:58:00,65.0,53.0,30.02,WNW,285,5.0,10.0,66,0.00,,,0.00,,2013-05-17 21:58:00,
2013-05-17 15:06:00,65.0,54.0,30.02,West,274,4.0,11.0,67,0.00,,,0.00,,2013-05-17 22:06:00,
2013-05-17 15:17:00,65.0,54.0,30.02,West,274,4.0,11.0,67,0.00,,,0.00,,2013-05-17 22:17:00,
2013-05-17 15:28:00,65.0,54.0,30.02,West,274,4.0,11.0,67,0.00,,,0.00,,2013-05-17 22:28:00,
2013-05-17 15:37:00,65.0,54.0,30.02,West,274,4.0,11.0,67,0.00,,,0.00,,2013-05-17 22:37:00,
2013-05-17 15:55:00,64.0,53.0,30.01,WSW,248,5.0,13.0,68,0.00,,,0.00,,2013-05-17 22:55:00,
2013-05-17 16:04:00,64.0,53.0,30.01,WSW,248,5.0,13.0,68,0.00,,,0.00,,2013-05-17 23:04:00,
2013-05-17 16:13:00,64.0,53.0,30.01,WSW,248,5.0,13.0,68,0.00,,,0.00,,2013-05-17 23:13:00,
2013-05-17 16:23:00,64.0,53.0,30.01,North,1,4.0,9.0,68,0.00,,,0.00,,2013-05-17 23:23:00,
2013-05-17 16:37:00,65.0,53.0,30.01,WSW,249,3.0,10.0,65,0.00,,,0.00,,2013-05-17 23:37:00,
2013-05-17 16:47:00,65.0,53.0,30.01,WSW,249,3.0,10.0,65,0.00,,,0.00,,2013-05-17 23:47:00,
2013-05-17 16:54:00,64.0,52.0,30.00,NW,314,5.0,10.0,65,0.00,,,0.00,,2013-05-17 23:54:00,
2013-05-17 17:02:00,65.0,53.0,30.01,NE,45,6.0,10.0,65,0.00,,,0.00,,2013-05-18 00:02:00,
2013-05-17 17:13:00,65.0,53.0,30.01,NE,45,6.0,10.0,65,0.00,,,0.00,,2013-05-18 00:13:00,
2013-05-17 17:21:00,65.0,53.0,30.01,NE,45,6.0,10.0,65,0.00,,,0.00,,2013-05-18 00:21:00,
2013-05-17 17:33:00,64.0,52.0,30.01,WNW,287,5.0,12.0,65,0.00,,,0.00,,2013-05-18 00:33:00,
2013-05-17 17:44:00,64.0,52.0,30.01,WNW,287,5.0,12.0,65,0.00,,,0.00,,2013-05-18 00:44:00,
2013-05-17 17:54:00,66.0,52.0,30.01,NW,321,2.0,5.0,61,0.00,,,0.00,,2013-05-18 00:54:00,
2013-05-17 18:02:00,65.0,51.0,30.00,NNE,15,2.0,7.0,60,0.00,,,0.00,,2013-05-18 01:02:00,
2013-05-17 18:13:00,65.0,51.0,30.00,NNE,15,2.0,7.0,60,0.00,,,0.00,,2013-05-18 01:13:00,
2013-05-17 18:24:00,65.0,51.0,30.00,NNE,15,2.0,7.0,60,0.00,,,0.00,,2013-05-18 01:24:00,
2013-05-17 18:31:00,65.0,51.0,30.01,WNW,284,2.0,9.0,61,0.00,,,0.00,,2013-05-18 01:31:00,
2013-05-17 18:42:00,65.0,51.0,30.01,WNW,284,2.0,9.0,61,0.00,,,0.00,,2013-05-18 01:42:00,
2013-05-17 18:52:00,65.0,51.0,30.01,WNW,284,2.0,9.0,61,0.00,,,0.00,,2013-05-18 01:52:00,
2013-05-17 19:02:00,63.0,51.0,30.01,NW,306,2.0,9.0,65,0.00,,,0.00,,2013-05-18 02:02:00,
2013-05-17 19:11:00,63.0,51.0,30.01,NW,306,2.0,9.0,65,0.00,,,0.00,,2013-05-18 02:11:00,
2013-05-17 19:22:00,63.0,51.0,30.01,NW,306,2.0,9.0,65,0.00,,,0.00,,2013-05-18 02:22:00,
2013-05-17 19:31:00,61.0,51.0,30.02,NNW,329,1.0,5.0,69,0.00,,,0.00,,2013-05-18 02:31:00,
2013-05-17 19:42:00,61.0,51.0,30.02,NNW,329,1.0,5.0,69,0.00,,,0.00,,2013-05-18 02:42:00,
2013-05-17 19:53:00,61.0,51.0,30.02,NNE,24,1.0,4.0,70,0.00,,,0.00,,2013-05-18 02:53:00,
2013-05-17 20:02:00,61.0,51.0,30.02,NNE,24,1.0,4.0,70,0.00,,,0.00,,2013-05-18 03:02:00,
2013-05-17 20:11:00,61.0,51.0,30.02,NNE,24,1.0,4.0,70,0.00,,,0.00,,2013-05-18 03:11:00,
2013-05-17 20:22:00,58.0,51.0,30.03,WNW,291,0.0,3.0,77,0.00,,,0.00,,2013-05-18 03:22:00,
2013-05-17 20:32:00,58.0,51.0,30.03,WNW,291,0.0,3.0,77,0.00,,,0.00,,2013-05-18 03:32:00,
2013-05-17 20:43:00,58.0,51.0,30.03,WNW,291,0.0,3.0,77,0.00,,,0.00,,2013-05-18 03:43:00,
2013-05-17 20:53:00,56.0,50.0,30.03,NNE,24,0.0,2.0,81,0.00,,,0.00,,2013-05-18 03:53:00,
2013-05-17 21:02:00,55.0,50.0,30.04,North,0,0.0,1.0,82,0.00,,,0.00,,2013-05-18 04:02:00,
2013-05-17 21:12:00,55.0,50.0,30.04,North,0,0.0,1.0,82,0.00,,,0.00,,2013-05-18 04:12:00,
2013-05-17 21:22:00,55.0,50.0,30.04,North,0,0.0,1.0,82,0.00,,,0.00,,2013-05-18 04:22:00,
2013-05-17 21:32:00,55.0,50.0,30.05,North,0,0.0,2.0,84,0.00,,,0.00,,2013-05-18 04:32:00,
2013-05-17 21:42:00,55.0,50.0,30.05,North,0,0.0,2.0,84,0.00,,,0.00,,2013-05-18 04:42:00,
2013-05-17 21:52:00,55.0,50.0,30.05,North,0,0.0,2.0,84,0.00,,,0.00,,2013-05-18 04:52:00,
2013-05-17 22:02:00,54.0,50.0,30.06,NE,45,0.0,3.0,85,0.00,,,0.00,,2013-05-18 05:02:00,
2013-05-17 22:12:00,54.0,50.0,30.06,NE,45,0.0,3.0,85,0.00,,,0.00,,2013-05-18 05:12:00,
2013-05-17 22:22:00,54.0,50.0,30.06,NE,45,0.0,3.0,85,0.00,,,0.00,,2013-05-18 05:22:00,
2013-05-17 22:31:00,54.0,50.0,30.06,NE,49,0.0,3.0,86,0.00,,,0.00,,2013-05-18 05:31:00,
2013-05-17 22:41:00,54.0,50.0,30.06,NE,49,0.0,3.0,86,0.00,,,0.00,,2013-05-18 05:41:00,
2013-05-17 22:52:00,54.0,50.0,30.06,NE,49,0.0,3.0,86,0.00,,,0.00,,2013-05-18 05:52:00,
2013-05-17 23:02:00,54.0,50.0,30.06,ENE,61,0.0,4.0,86,0.00,,,0.00,,2013-05-18 06:02:00,
2013-05-17 23:11:00,54.0,50.0,30.06,ENE,61,0.0,4.0,86,0.00,,,0.00,,2013-05-18 06:11:00,
2013-05-17 23:22:00,54.0,50.0,30.06,ENE,61,0.0,4.0,86,0.00,,,0.00,,2013-05-18 06:22:00,
2013-05-17 23:31:00,53.0,49.0,30.07,East,81,1.0,3.0,86,0.00,,,0.00,,2013-05-18 06:31:00,
2013-05-17 23:41:00,53.0,49.0,30.07,East,81,1.0,3.0,86,0.00,,,0.00,,2013-05-18 06:41:00,
2013-05-17 23:52:00,53.0,49.0,30.07,NE,45,1.0,3.0,87,0.00,,,0.00,,2013-05-18 06:52:00,